DW6366 Weather Reports


Display with metric or nautical units.
time (UTC)temp
F
wind
direction
speed
MPH
gust
MPH
rain 1hr
in
rain 24hr
in
rain mn
in
humidity
%
barometer
mb
20260506194344 55 65 1.0 6.0 0.00 0.00 0.00 68 1012.2
20260506193338 55 4 0.0 2.0 0.00 0.00 0.00 68 1012.0
20260506192332 55 55 0.0 2.0 0.00 0.00 0.00 67 1012.0
20260506191341 55 88 0.0 3.0 0.00 0.00 0.00 67 1011.8
20260506190332 55 70 1.0 2.0 0.00 0.00 0.00 66 1011.7
20260506185331 56 70 0.0 2.0 0.00 0.00 0.00 66 1011.5
20260506184334 56 70 1.0 3.0 0.00 0.00 0.00 65 1011.4
20260506183341 56 76 2.0 3.0 0.00 0.00 0.00 65 1011.3
20260506182348 56 73 1.0 3.0 0.00 0.00 0.00 64 1011.1
20260506181330 56 208 3.0 4.0 0.00 0.00 0.00 63 1011.0
20260506180330 56 70 2.0 5.0 0.00 0.00 0.00 63 1010.9
20260506175341 56 208 3.0 4.0 0.00 0.00 0.00 62 1010.8
20260506174348 56 208 3.0 5.0 0.00 0.00 0.00 62 1010.7
20260506173342 56 208 3.0 9.0 0.00 0.00 0.00 61 1010.6
20260506172324 56 208 5.0 9.0 0.00 0.00 0.00 59 1010.5
20260506171338 56 208 5.0 11.0 0.00 0.00 0.00 60 1010.4
20260506170331 57 87 3.0 10.0 0.00 0.00 0.00 60 1010.4
20260506165323 57 138 7.0 10.0 0.00 0.00 0.00 60 1010.3
20260506164322 57 108 7.0 15.0 0.00 0.00 0.00 60 1010.3
20260506163348 57 59 3.0 12.0 0.00 0.00 0.00 60 1010.3
20260506162402 57 234 6.0 12.0 0.00 0.00 0.00 59 1010.3
20260506161318 57 77 0.0 6.0 0.00 0.00 0.00 61 1010.3
20260506160322 57 60 4.0 10.0 0.00 0.00 0.00 61 1010.3
20260506155333 57 208 8.0 13.0 0.00 0.00 0.00 61 1010.3
20260506154323 57 339 1.0 12.0 0.00 0.00 0.00 60 1010.3
20260506153355 57 208 6.0 11.0 0.00 0.00 0.00 60 1010.3
20260506152324 58 81 6.0 15.0 0.00 0.00 0.00 60 1010.3
20260506151334 57 94 5.0 14.0 0.00 0.00 0.00 59 1010.3
20260506150330 58 82 7.0 13.0 0.00 0.00 0.00 59 1010.3
20260506145340 58 99 6.0 12.0 0.00 0.00 0.00 58 1010.2
20260506144334 59 102 5.0 11.0 0.00 0.00 0.00 53 1010.1
20260506143347 60 98 2.0 9.0 0.00 0.00 0.00 52 1010.1
20260506142348 59 46 4.0 12.0 0.00 0.00 0.00 55 1010.1
20260506141324 60 334 2.0 16.0 0.00 0.00 0.00 54 1010.0
20260506140335 59 57 9.0 17.0 0.00 0.00 0.00 56 1010.0
20260506135330 59 90 3.0 8.0 0.00 0.00 0.00 55 1010.0
20260506134321 60 73 3.0 12.0 0.00 0.00 0.00 59 1009.8
20260506133336 60 312 2.0 9.0 0.00 0.00 0.00 57 1009.9
20260506132331 60 28 3.0 7.0 0.00 0.00 0.00 59 1009.8
20260506131339 60 256 2.0 8.0 0.00 0.00 0.00 59 1009.7
20260506130348 62 20 2.0 9.0 0.00 0.00 0.00 57 1009.7
20260506125338 62 77 2.0 15.0 0.00 0.00 0.00 58 1009.6
20260506124349 61 13 2.0 10.0 0.00 0.00 0.00 59 1009.7
20260506123338 61 337 2.0 11.0 0.00 0.00 0.00 59 1009.5
20260506122336 61 208 8.0 14.0 0.00 0.00 0.00 59 1009.5
20260506121323 61 349 2.0 11.0 0.00 0.00 0.00 60 1009.5
20260506120325 60 18 2.0 6.0 0.00 0.00 0.00 61 1009.4
20260506115321 58 65 3.0 10.0 0.00 0.00 0.00 61 1009.4
20260506114339 58 58 2.0 9.0 0.00 0.00 0.00 66 1009.5
20260506113338 58 97 2.0 8.0 0.00 0.00 0.00 64 1009.5
20260506112320 58 323 2.0 6.0 0.00 0.00 0.00 64 1009.5
20260506111346 59 69 3.0 10.0 0.00 0.00 0.00 64 1009.4
20260506110322 60 349 3.0 11.0 0.00 0.00 0.00 59 1009.4
20260506105335 60 296 2.0 5.0 0.00 0.00 0.00 65 1009.4
20260506104328 61 23 4.0 8.0 0.00 0.00 0.00 62 1009.4
20260506103334 60 10 3.0 9.0 0.00 0.00 0.00 61 1009.4
20260506102331 60 5 3.0 8.0 0.00 0.00 0.00 61 1009.2
20260506101321 60 68 2.0 8.0 0.00 0.00 0.00 64 1009.3
20260506100334 59 23 2.0 5.0 0.00 0.00 0.00 68 1009.2
20260506095334 57 344 2.0 8.0 0.00 0.00 0.00 68 1009.2
20260506094327 57 334 1.0 6.0 0.00 0.00 0.00 68 1009.2
20260506093347 57 338 2.0 8.0 0.00 0.00 0.00 71 1009.2
20260506092325 57 16 2.0 6.0 0.00 0.00 0.00 72 1009.1
20260506091326 57 21 2.0 5.0 0.00 0.00 0.00 73 1009.1
20260506090333 56 348 2.0 9.0 0.00 0.00 0.00 74 1009.0
20260506085327 56 304 3.0 9.0 0.00 0.00 0.00 75 1009.1
20260506084337 56 36 3.0 9.0 0.00 0.00 0.00 75 1009.0
20260506083322 55 329 2.0 10.0 0.00 0.00 0.00 76 1008.9
20260506082324 55 293 2.0 11.0 0.00 0.00 0.00 76 1008.9
20260506081319 55 336 3.0 8.0 0.00 0.00 0.00 78 1009.0
20260506080336 55 55 2.0 10.0 0.00 0.00 0.00 79 1008.9
20260506073335 54 57 3.0 14.0 0.00 0.00 0.00 82 1008.8
20260506072351 53 157 1.0 4.0 0.00 0.00 0.00 82 1008.9
20260506071358 53 359 2.0 7.0 0.00 0.00 0.00 83 1008.8
20260506070324 53 319 1.0 5.0 0.00 0.00 0.00 84 1008.7
20260506062351 51 337 2.0 6.0 0.00 0.00 0.00 88 1008.6
20260506061344 51 63 2.0 9.0 0.00 0.00 0.00 88 1008.5
20260506060331 51 42 2.0 6.0 0.00 0.00 0.00 89 1008.6
20260506051322 49 355 0.0 3.0 0.00 0.00 0.00 90 1008.5
20260506050408 49 2 1.0 3.0 0.00 0.00 0.00 90 1008.6
20260506044343 50 5 1.0 4.0 0.00 0.00 0.00 89 1008.7
20260506043325 50 4 1.0 7.0 0.00 0.00 0.00 88 1008.7
20260506042342 50 2 1.0 5.0 0.00 0.00 0.00 87 1008.8
20260506041325 50 3 2.0 8.0 0.00 0.00 0.00 87 1008.8
20260506040324 50 302 1.0 7.0 0.00 0.00 0.00 86 1008.7
20260506035335 50 15 1.0 8.0 0.00 0.00 0.00 86 1008.7
20260506034327 50 354 2.0 5.0 0.00 0.00 0.00 86 1008.8
20260506033327 50 5 1.0 4.0 0.00 0.00 0.00 86 1008.8
20260506032353 50 355 1.0 5.0 0.00 0.00 0.00 86 1008.8
20260506031344 50 5 2.0 7.0 0.00 0.00 0.00 86 1008.8
20260506030343 49 5 1.0 5.0 0.00 0.00 0.00 86 1008.9
20260506025352 49 10 2.0 5.0 0.00 0.00 0.00 86 1009.0
20260506024334 49 10 1.0 5.0 0.00 0.00 0.00 86 1009.1
20260506023324 49 354 2.0 7.0 0.00 0.00 0.00 86 1009.0
20260506022323 49 338 2.0 6.0 0.00 0.00 0.00 86 1009.1
20260506021328 49 327 1.0 6.0 0.00 0.00 0.00 86 1009.1
20260506020322 49 343 1.0 7.0 0.00 0.00 0.00 86 1009.2
20260506015354 49 325 2.0 6.0 0.00 0.00 0.00 85 1009.2
20260506014329 49 37 1.0 3.0 0.00 0.00 0.00 84 1009.1
20260506013324 49 334 1.0 3.0 0.00 0.00 0.00 84 1009.2
20260506012331 49 8 1.0 8.0 0.00 0.00 0.00 83 1009.2
20260506011348 49 3 1.0 8.0 0.00 0.00 0.00 83 1009.3
20260506010321 49 332 1.0 8.0 0.00 0.00 0.00 83 1009.4
20260506005334 49 7 2.0 5.0 0.00 0.00 0.00 83 1009.4
20260506004322 49 327 1.0 7.0 0.00 0.00 0.00 82 1009.7
20260506003343 49 340 2.0 7.0 0.00 0.00 0.00 82 1009.7
20260506002341 49 358 1.0 6.0 0.00 0.00 0.00 82 1009.8
20260506001353 49 337 2.0 7.0 0.00 0.00 0.00 82 1009.8
20260506000338 49 44 1.0 3.0 0.00 0.00 0.00 82 1009.9
20260505235322 49 22 1.0 3.0 0.00 0.00 0.00 82 1009.9
20260505234321 49 344 0.0 5.0 0.00 0.00 0.00 82 1010.0
20260505233332 49 11 1.0 3.0 0.00 0.00 0.00 81 1010.0
20260505232325 49 347 1.0 5.0 0.00 0.00 0.00 81 1010.0
20260505231336 49 22 1.0 4.0 0.00 0.00 0.00 80 1010.1
20260505230325 49 344 1.0 5.0 0.00 0.00 0.00 80 1010.1
20260505225339 49 5 3.0 9.0 0.00 0.00 0.00 80 1010.2
20260505224323 49 14 1.0 3.0 0.00 0.00 0.00 79 1010.3
20260505223319 49 11 1.0 4.0 0.00 0.00 0.00 79 1010.3
20260505222336 50 350 0.0 5.0 0.00 0.00 0.00 79 1010.3
20260505221339 50 358 1.0 6.0 0.00 0.00 0.00 79 1010.3
20260505220406 50 350 2.0 8.0 0.00 0.00 0.00 78 1010.3
20260505215331 50 347 3.0 9.0 0.00 0.00 0.00 78 1010.4
20260505214320 50 355 2.0 8.0 0.00 0.00 0.00 78 1010.4
20260505213336 50 9 3.0 7.0 0.00 0.00 0.00 79 1010.5
20260505212327 51 334 2.0 8.0 0.00 0.00 0.00 79 1010.5
20260505211323 51 15 2.0 5.0 0.00 0.00 0.00 79 1010.6
20260505210328 51 27 3.0 8.0 0.00 0.00 0.00 79 1010.6
20260505205338 51 328 3.0 7.0 0.00 0.00 0.00 79 1010.7
20260505204337 52 324 2.0 5.0 0.00 0.00 0.00 79 1010.7
20260505203350 52 342 3.0 8.0 0.00 0.00 0.00 78 1010.7
20260505202409 52 356 2.0 7.0 0.00 0.00 0.00 78 1010.7
20260505201350 52 358 2.0 9.0 0.00 0.00 0.00 78 1010.7
20260505200348 53 334 2.0 7.0 0.00 0.00 0.00 77 1010.7
20260505195326 53 1 2.0 6.0 0.00 0.00 0.00 76 1010.6